Regional Weather Roundup
Issued by NWS Cleveland, OH

Home | Current Version | Previous Version | Text Only | Print | Product List | Glossary Off
Versions: 1 2 3 4 5 6 7 8 9 10 11 12 13 14 15 16 17 18 19 20 21 22 23 24 25 26 27 28 29 30 31 32 33 34 35 36 37 38 39 40 41 42 43 44 45 46 47 48 49 50

000
ASUS41 KCLE 030710
RWRCLE
OHIO REGIONAL WEATHER ROUNDUP
NATIONAL WEATHER SERVICE WILMINGTON, OH
300 AM EDT FRI JUL 03 2015

NOTE: "FAIR" INDICATES FEW OR NO CLOUDS BELOW 12,000 FEET WITH NO
SIGNIFICANT WEATHER AND/OR OBSTRUCTIONS TO VISIBILITY.

OHZ001>008-015>018-024>027-034-035-043-044-030800-
   NORTHWEST OHIO

CITY           SKY/WX    TMP DP  RH WIND       PRES   REMARKS
DEFIANCE       PTCLDY    60  55  83 NE5       29.99S
FINDLAY        PTCLDY    61  55  81 NE7       29.97S
TOLEDO EXPRESS PTCLDY    56  55  97 CALM      29.99S
TOLEDO EXEC    PTCLDY    61  55  81 NE5       30.00R
LIMA           PTCLDY    59  53  80 E6        29.97F
$$

OHZ009>014-019>023-028>033-038-089-030800-
   NORTHEAST OHIO

CITY           SKY/WX    TMP DP  RH WIND       PRES   REMARKS
CLE-HOPKINS    PTCLDY    60  51  72 NE5       30.00S
CLE-LAKEFRONT  CLEAR     62  51  67 E3        29.98S
CUY CO. ARPT   NOT AVBL
LORAIN-ELYRIA  PTCLDY    58  57  97 CALM      30.00R FOG
ASHTABULA      CLEAR     51  50  96 CALM      30.00F
AKRON-CANTON   PTCLDY    56  51  84 N6        29.98S
WOOSTER        PTCLDY    54  52  93 CALM      29.99S
MANSFIELD      CLEAR     57  54  89 NE3       29.99R
YOUNGSTOWN     PTCLDY    54  51  90 NE6       29.98F
$$

OHZ042-051>053-060>062-070>072-077>081-030800-
  SOUTHWEST OHIO

CITY           SKY/WX    TMP DP  RH WIND       PRES   REMARKS
CINC-COVINGTON CLOUDY    69  65  86 NE9       29.90F FOG
CINC-LUNKEN    CLOUDY    67  66  97 NE5       29.90F
HAMILTON       CLOUDY    68  62  81 NE6       29.92S
DAYTON         PTCLDY    64  56  75 NE8       29.95S
WRIGHT-PAT AFB PTCLDY    62  56  81 NE8       29.94S
DAYTON GENERAL CLOUDY    64  58  80 NE9       29.93R
WILMINGTON     MOCLDY    63  60  90 NE8       29.93R
$$

OHZ036-037-039>041-045>050-054>059-063>069-073>076-082>088-030800-
  CENTRAL AND SOUTHEAST OHIO

CITY           SKY/WX    TMP DP  RH WIND       PRES   REMARKS
COLUMBUS       PTCLDY    62  55  77 NE7       29.94F
OSU AIRPORT    CLEAR     61  55  81 NE8       29.95F
BOLTON FIELD   MOCLDY    62  57  85 NE5       29.95F
RICKENBACK AFB PTCLDY    60  56  89 NE8       29.93F
NEWARK         CLEAR     62  55  77 NE3       29.95F
MARION         PTCLDY    58  54  86 NE5       29.97F
LANCASTER      PTCLDY    62  57  83 N3        29.95S
ZANESVILLE     PTCLDY    61  57  87 CALM      29.96S
NEW PHILLY     CLEAR     55  54  96 CALM      29.98R
$$



USA.gov is the U.S. government's official web portal to all federal, state and local government web resources and services.